Humidity-temperature Sensor

Selected Measurement Type: Air Temperature

 
Air Temperature [°C]     6 entries per hour
Showing data from 8/12/2020 (00:00:00 Z) to 8/11/2020 (00:01:00 Z)
Previous Next [ Day | 3-Days | 7-Days ]
First Last
Prev [ Day | 3-Days | 7-Days ] Next
First Last

Start Time:     :
End Time:     :     
Time (in GMT) :00 :50 :40 :30 :20 :10
Previous Next [ Day | 3-Days | 7-Days ]
First Last
Prev [ Day | 3-Days | 7-Days ] Next
First Last


123 => good data
MM => data is determined as missing
-- => data not received/configured
Back to Top Back to Top
8/12/2020 00:00 to 23:10 26.82 27.21 27.17 27.17 27.14 27.37
8/11/2020 23:00 to 22:10 27.37 27.58 27.46 27.45 27.74 27.62
8/11/2020 22:00 to 21:10 27.57 27.56 27.14 26.99 26.97 27.08
8/11/2020 21:00 to 20:10 27.40 26.95 26.52 26.39 26.23 26.13
8/11/2020 20:00 to 19:10 25.86 26.03 25.72 25.70 25.67 26.02
8/11/2020 19:00 to 18:10 26.30 25.93 25.68 25.82 25.55 26.26
8/11/2020 18:00 to 17:10 26.46 26.48 26.77 27.03 27.22 28.15
8/11/2020 17:00 to 16:10 27.84 27.26 27.01 26.73 26.90 27.13
8/11/2020 16:00 to 15:10 27.46 27.62 27.51 27.52 27.63 27.57
8/11/2020 15:00 to 14:10 27.73 27.61 27.51 27.46 27.48 27.48
8/11/2020 14:00 to 13:10 27.36 27.33 27.12 27.04 27.09 27.07
8/11/2020 13:00 to 12:10 27.03 26.94 26.80 26.82 26.73 26.92
8/11/2020 12:00 to 11:10 26.98 27.15 27.11 27.23 27.28 27.53
8/11/2020 11:00 to 10:10 27.76 28.04 28.44 28.51 28.50 28.45
8/11/2020 10:00 to 9:10 28.51 28.40 28.20 27.90 27.87 27.43
8/11/2020 09:00 to 8:10 27.73 28.56 28.65 28.66 28.67 28.66
8/11/2020 08:00 to 7:10 28.60 28.63 28.60 28.67 28.62 28.60
8/11/2020 07:00 to 6:10 28.67 28.59 28.62 28.67 28.67 28.65
8/11/2020 06:00 to 5:10 28.68 28.63 28.58 28.60 28.65 28.75
8/11/2020 05:00 to 4:10 28.51 28.73 28.75 28.57 28.52 28.73
8/11/2020 04:00 to 3:10 28.60 28.56 28.49 28.64 28.60 28.60
8/11/2020 03:00 to 2:10 28.64 28.63 28.57 28.54 28.65 28.66
8/11/2020 02:00 to 1:10 28.56 28.73 28.63 28.77 28.55 28.73
8/11/2020 01:00 to 0:10 28.85 28.59 28.61 28.66 28.53 28.55